Hourly Data Report for July 25, 2021

LONDON CS
ONTARIO
Current Station Operator: ECCC - MSC

43°02'00.000" N
81°09'00.000" W
278.00 m
6144478
71622
WSN

Download Data

Hourly Data (July 2021)
Hourly Data Report for July 25, 2021
TIME
LST
Temp Definition
°C
Dew Point Definition
°C
Rel Hum Definition
%
Precip. Amount Definition
mm

Wind Dir Definition
10's deg

Wind Spd Definition
km/h
Visibility Definition
km
Stn Press Definition
kPa
Hmdx Definition


Wind Chill Definition


Weather Definition


00:00 20.3 19.8 97 0.0       97.72 28   LegendNANA
01:00 20.1 19.6 97 0.0       97.74 27   LegendNANA
02:00 19.4 18.7 96 0.0       97.77     LegendNANA
03:00 18.6 18.1 97 0.0       97.78     LegendNANA
04:00 17.6 17.2 98 0.0       97.78     LegendNANA
05:00 16.6 16.3 98 0.2       97.83     LegendNANA
06:00 18.0 17.8 99 0.0       97.90     LegendNANA
07:00 19.4 18.5 94 0.0       97.96     LegendNANA
08:00 21.8 20.0 90 0.0       97.99 29   LegendNANA
09:00 23.5 20.0 81 0.0       98.00 31   LegendNANA
10:00 25.4 21.0 77 0.0       98.02 34   LegendNANA
11:00 26.4 20.9 72 0.0       98.03 35   LegendNANA
12:00 27.6 18.6 58 0.0       98.03 34   LegendNANA
13:00 28.4 17.5 52 0.0       98.01 34   LegendNANA
14:00 29.0 14.8 42 0.0       98.00 33   LegendNANA
15:00 29.5 11.4 33 0.0       98.00 31   LegendNANA
16:00 29.6 14.5 40 0.0       97.99 33   LegendNANA
17:00 28.8 14.5 42 0.0       97.97 32   LegendNANA
18:00 28.0 14.8 45 0.0       97.98 32   LegendNANA
19:00 26.1 14.4 48 0.0       98.00 30   LegendNANA
20:00 22.8 16.1 66 0.0       98.02 27   LegendNANA
21:00 20.7 16.2 75 0.0       98.06 25   LegendNANA
22:00 19.2 15.4 79 0.0       98.09     LegendNANA
23:00 18.7 16.2 86 0.0       98.10     LegendNANA

Notes on Data Quality.

Legend

  • E = Estimated
  • M = Missing
  • NA = Not Available*
  • [empty] = Indicates an unobserved value
Date modified: